Precipitable_Water
1.34 1.25 1.29 1.32 1.43 1.52 1.56 1.57 1.57 1.52 1.43 1.38 1.31 1.30 1.28 1.25 1.43 1.46 1.59 1.57 1.58 1.63 1.58 1.51 1.35 1.20 1.11 1.08 1.14 1.31 1.25 1.14 1.10
1.51 1.44 1.42 1.42 1.36 1.33 1.34 1.39 1.43 1.42 1.44 1.41 1.37 1.40 1.37 1.28 1.32 1.35 1.35 1.55 1.55 1.56 1.62 1.61 1.57 1.49 1.29 1.15 1.12 1.14 1.15 1.11 1.04
1.52 1.50 1.47 1.44 1.42 1.41 1.36 1.29 1.25 1.24 1.30 1.41 1.36 1.36 1.45 1.42 1.35 1.28 1.23 1.34 1.49 1.50 1.46 1.53 1.60 1.51 1.48 1.28 1.18 1.15 1.12 1.08 1.03
1.43 1.45 1.44 1.43 1.44 1.42 1.40 1.34 1.28 1.17 1.21 1.25 1.30 1.34 1.41 1.47 1.39 1.34 1.31 1.28 1.31 1.34 1.35 1.34 1.40 1.45 1.47 1.41 1.29 1.23 1.18 1.16 1.05
1.40 1.41 1.40 1.38 1.38 1.36 1.31 1.32 1.30 1.31 1.25 1.10 1.08 1.17 1.27 1.22 1.27 1.37 1.41 1.40 1.37 1.42 1.43 1.31 1.26 1.24 1.30 1.39 1.39 1.35 1.25 1.19 1.11
1.20 1.26 1.29 1.32 1.34 1.32 1.31 1.27 1.24 1.22 1.22 1.19 1.11 1.05 1.01 1.07 1.19 1.37 1.48 1.51 1.49 1.40 1.38 1.47 1.47 1.41 1.26 1.26 1.35 1.37 1.38 1.31 1.24
0.96 1.01 1.04 1.08 1.08 1.11 1.15 1.15 1.18 1.21 1.21 1.20 1.20 1.15 1.08 1.04 1.19 1.31 1.42 1.48 1.53 1.49 1.44 1.45 1.54 1.57 1.53 1.44 1.30 1.34 1.40 1.43 1.41
0.63 0.68 0.72 0.76 0.80 0.83 0.86 0.88 0.98 1.02 1.05 1.14 1.19 1.19 1.21 1.26 1.30 1.22 1.25 1.35 1.43 1.35 1.33 1.38 1.47 1.48 1.48 1.46 1.47 1.37 1.32 1.41 1.46
0.31 0.32 0.34 0.37 0.40 0.46 0.50 0.55 0.58 0.62 0.69 0.78 0.87 0.99 1.18 1.32 1.33 1.35 1.34 1.29 1.22 1.22 1.24 1.24 1.25 1.34 1.39 1.30 1.31 1.45 1.39 1.41 1.45
0.22 0.22 0.22 0.23 0.23 0.25 0.26 0.29 0.31 0.32 0.34 0.35 0.42 0.52 0.73 0.88 1.01 1.11 1.21 1.32 1.34 1.37 1.36 1.28 1.22 1.20 1.15 1.16 1.17 1.32 1.45 1.43 1.42
0.21 0.20 0.19 0.19 0.19 0.19 0.18 0.17 0.17 0.17 0.18 0.18 0.22 0.28 0.35 0.42 0.48 0.58 0.64 0.80 0.96 1.16 1.23 1.33 1.34 1.38 1.37 1.30 1.20 1.23 1.31 1.39 1.43
0.21 0.20 0.20 0.19 0.20 0.20 0.19 0.18 0.18 0.17 0.18 0.17 0.19 0.24 0.23 0.23 0.24 0.25 0.26 0.30 0.40 0.56 0.73 0.94 1.11 1.26 1.40 1.39 1.41 1.34 1.30 1.27 1.32
0.21 0.21 0.21 0.21 0.20 0.21 0.20 0.20 0.18 0.18 0.19 0.18 0.20 0.24 0.21 0.22 0.21 0.21 0.20 0.21 0.21 0.24 0.28 0.35 0.49 0.75 1.04 1.18 1.26 1.33 1.39 1.37 1.38
0.22 0.21 0.22 0.22 0.21 0.21 0.22 0.21 0.21 0.19 0.20 0.20 0.22 0.25 0.22 0.22 0.21 0.20 0.19 0.19 0.19 0.19 0.19 0.23 0.27 0.32 0.39 0.62 0.81 1.01 1.15 1.31 1.38
0.23 0.22 0.23 0.22 0.22 0.22 0.22 0.22 0.23 0.21 0.20 0.20 0.21 0.25 0.23 0.23 0.23 0.21 0.21 0.20 0.20 0.20 0.18 0.19 0.19 0.24 0.29 0.38 0.41 0.46 0.67 0.92 1.14
0.25 0.24 0.24 0.25 0.24 0.24 0.24 0.23 0.23 0.23 0.23 0.21 0.21 0.24 0.27 0.26 0.24 0.24 0.22 0.21 0.21 0.21 0.20 0.19 0.20 0.20 0.22 0.31 0.33 0.34 0.36 0.47 0.74
0.27 0.27 0.27 0.27 0.27 0.26 0.26 0.26 0.25 0.26 0.26 0.23 0.23 0.20 0.27 0.27 0.25 0.25 0.24 0.24 0.23 0.22 0.22 0.20 0.21 0.22 0.21 0.25 0.26 0.27 0.28 0.34 0.40
0.31 0.31 0.31 0.31 0.31 0.30 0.29 0.30 0.29 0.29 0.31 0.32 0.28 0.25 0.23 0.24 0.28 0.27 0.27 0.25 0.25 0.24 0.24 0.22 0.22 0.23 0.22 0.23 0.23 0.25 0.25 0.29 0.34
0.36 0.37 0.37 0.37 0.38 0.36 0.35 0.34 0.33 0.32 0.30 0.32 0.32 0.32 0.30 0.26 0.25 0.28 0.28 0.29 0.28 0.27 0.27 0.25 0.25 0.25 0.23 0.24 0.25 0.26 0.25 0.28 0.31
0.37 0.37 0.37 0.36 0.35 0.34 0.33 0.31 0.30 0.29 0.28 0.28 0.28 0.29 0.29 0.30 0.28 0.27 0.28 0.28 0.28 0.28 0.29 0.27 0.27 0.27 0.26 0.27 0.26 0.26 0.27 0.28 0.30
Wind_Speed
5 5 4 4 4 4 3 3 3 4 4 4 4 3 2 4 4 4 3 3 2 2 2 2 3 3 3 3 3 4 3 2 2
3 3 3 3 3 3 3 3 3 3 4 4 4 3 2 2 3 3 2 1 1 1 1 1 1 2 1 1 1 2 2 2 1
3 3 3 3 2 2 2 2 2 3 4 4 5 4 4 4 3 3 3 3 3 2 2 2 2 3 3 3 3 3 3 3 3
3 3 3 3 3 3 3 3 3 3 4 5 5 5 6 5 5 4 4 4 5 5 5 5 5 5 5 6 5 5 5 5 5
3 3 3 3 3 3 3 4 4 5 5 5 6 6 6 7 7 7 7 7 7 6 7 7 7 8 8 8 8 8 7 7 6
4 3 3 3 3 3 3 4 4 5 6 6 7 7 8 8 9 9 9 9 10 10 9 8 9 9 10 10 10 11 11 10 9
6 6 5 4 4 4 4 4 4 5 6 7 7 9 10 9 9 10 10 9 9 9 10 10 9 10 10 11 12 13 13 14 13
7 7 7 7 7 7 7 7 7 7 7 8 9 10 10 10 10 11 12 12 13 13 13 13 13 13 13 13 13 15 15 15 16
8 7 7 7 8 8 8 9 9 9 10 10 10 10 11 12 12 13 13 13 14 14 15 16 17 16 16 15 15 15 16 17 18
10 10 9 9 10 10 10 11 11 12 12 12 12 13 13 14 14 14 14 14 15 16 16 17 18 18 19 18 18 17 16 17 19
13 12 12 12 12 12 12 13 13 14 14 14 14 15 15 16 16 17 17 17 17 17 17 18 19 19 20 20 20 20 19 19 19
15 15 15 14 14 14 14 15 15 16 16 17 17 17 18 18 19 19 19 20 20 20 20 20 20 19 20 21 21 22 22 22 22
17 17 17 17 17 17 17 18 18 18 19 19 20 20 20 20 21 21 22 22 23 23 23 23 23 23 23 23 23 24 25 25 25
19 19 19 19 20 20 20 21 21 21 22 22 22 22 22 23 23 23 24 24 25 26 26 26 26 26 26 27 27 26 26 27 28
22 22 22 22 23 23 23 24 24 24 25 25 25 25 24 24 25 26 26 27 27 28 28 28 29 29 29 30 30 29 29 29 29
24 24 24 25 25 25 25 26 26 26 27 27 27 28 28 27 28 29 29 29 30 30 31 31 32 32 32 32 32 32 32 32 33
26 26 26 26 27 27 28 28 28 29 29 29 31 30 31 31 31 31 31 32 33 33 34 34 35 35 35 35 35 35 35 35 36
28 28 28 29 30 30 31 31 31 32 32 31 31 32 33 35 34 34 34 36 36 36 37 37 38 38 38 38 38 38 38 38 38
30 30 31 31 32 33 33 34 34 34 34 34 34 35 36 36 38 38 40 39 39 40 40 40 41 41 41 41 41 40 41 41 41
33 33 34 34 34 34 35 35 35 36 36 37 37 38 40 41 43 44 42 44 43 44 44 44 43 44 44 43 43 43 43 43 43
Wind_Direction
122 125 133 134 136 136 146 150 151 159 157 151 154 144 126 147 133 143 123 109 122 122 111 120 114 116 113 108 127 138 139 122 100
143 147 138 133 146 160 168 187 191 190 194 195 194 192 177 179 184 195 193 188 163 163 168 184 188 187 178 150 148 177 200 212 239
189 185 193 187 177 165 154 181 204 210 213 218 221 223 221 220 213 226 231 251 253 250 247 251 248 247 241 242 244 238 239 245 254
200 203 197 199 202 214 226 227 229 229 229 230 232 230 233 231 237 245 249 262 261 262 259 258 262 262 259 254 255 255 255 255 261
200 200 211 218 224 237 245 247 246 243 243 241 239 237 241 242 250 257 263 262 264 269 265 264 266 268 267 262 259 257 258 259 261
213 213 219 230 237 244 251 260 255 251 250 249 249 248 251 253 257 261 267 265 267 266 267 271 269 270 268 264 264 261 258 258 260
231 234 239 243 249 255 260 272 268 261 260 261 259 259 258 260 261 262 264 266 269 268 267 268 274 273 272 271 267 265 262 259 258
238 243 248 252 257 262 265 269 271 273 272 269 268 265 264 262 266 268 265 265 269 269 271 270 271 272 276 276 274 267 264 262 258
243 248 254 259 264 266 269 271 272 273 274 273 272 272 268 267 264 269 272 273 271 273 272 271 270 271 273 276 276 275 268 265 261
250 255 259 263 268 271 273 273 275 274 275 276 274 273 271 270 269 269 273 277 277 275 276 273 273 273 272 274 272 272 272 269 266
253 256 261 265 269 271 273 275 276 275 276 275 276 274 273 273 272 271 274 275 277 278 278 276 275 274 273 272 271 270 270 271 272
254 257 261 266 268 270 273 275 277 277 277 276 276 275 274 274 274 274 275 275 276 277 277 277 277 278 275 272 272 271 271 270 271
256 258 262 265 268 270 272 274 275 277 277 276 276 275 275 275 275 275 276 276 276 276 277 276 276 275 274 274 275 274 273 271 270
257 260 263 266 269 271 272 273 274 278 278 277 275 274 275 275 276 276 277 278 277 276 276 275 275 274 274 273 274 274 275 273 270
259 262 265 268 269 271 272 272 274 276 277 277 275 272 274 276 276 277 277 278 278 278 278 276 275 274 273 272 273 274 274 273 271
261 264 266 269 270 272 273 273 274 276 279 276 276 273 272 276 275 278 277 278 278 278 277 277 276 275 273 271 272 273 272 271 270
263 265 267 269 270 272 274 275 275 275 278 277 274 275 272 275 276 277 278 278 279 278 277 277 276 274 274 272 272 272 272 271 270
264 266 268 270 272 273 274 275 276 276 276 277 276 275 273 278 274 276 278 278 278 278 276 277 275 274 274 272 271 272 272 272 270
265 267 269 271 273 274 274 276 276 276 276 275 276 275 275 276 276 276 279 277 278 279 276 277 275 274 273 272 271 272 272 271 270
267 269 270 272 273 274 275 276 276 276 276 276 276 276 277 276 276 277 277 278 278 278 276 277 275 274 273 272 272 272 272 271 271